GW4507 Weather Reports


time (UTC)temp
F
wind
direction
speed
knots
gust
knots
rain 1hr
in
rain 24hr
in
rain mn
in
humidity
%
barometer
mb
20260504174524 66 29 9.6 18.2 0.00 0.00 0.00 36 1007.7
20260504173028 66 22 12.2 18.2 0.00 0.00 0.00 36 1007.7
20260504171530 65 19 12.2 17.4 0.00 0.00 0.00 38 1007.9
20260504081510 46 222 0.0 2.6 0.00 0.00 0.00 78 1006.4
20260504050012 52 167 0.0 2.6 0.00 0.00 0.00 71 1007.7
20260504044516 54 169 0.9 3.5 0.00 0.00 0.00 68 1008.3
20260504043016 56 360 1.7 4.3 0.00 0.00 0.00 66 1008.5
20260504041523 56 299 0.0 1.7 0.00 0.00 0.00 66 1009.0
20260504040009 57 5 2.6 4.3 0.00 0.00 0.00 64 1009.3
20260504034518 59 264 4.3 14.8 0.00 0.00 0.00 55 1010.6
20260504033023 53 298 1.7 2.6 0.00 0.00 0.00 58 1009.5
20260504031520 54 103 0.0 0.0 0.00 0.00 0.00 51 1008.8
20260504030034 55 103 0.0 1.7 0.00 0.00 0.00 51 1008.8
20260504024512 54 103 0.0 1.7 0.00 0.00 0.00 52 1008.6
20260504023015 54 103 0.0 1.7 0.00 0.00 0.00 52 1008.3
20260504021519 56 103 0.0 0.0 0.00 0.00 0.00 48 1008.4
20260504020025 58 103 0.0 2.6 0.00 0.00 0.00 46 1008.5
20260504014531 60 103 0.0 1.7 0.00 0.00 0.00 42 1008.7
20260504013028 63 103 0.0 0.0 0.00 0.00 0.00 39 1008.9
20260504011512 66 103 0.0 2.6 0.00 0.00 0.00 36 1008.9
20260504010018 69 92 0.0 3.5 0.00 0.00 0.00 33 1009.3
20260504004524 71 126 1.7 6.1 0.00 0.00 0.00 30 1009.4
20260504003028 72 159 1.7 7.0 0.00 0.00 0.00 29 1009.6
20260504001512 72 90 2.6 5.2 0.00 0.00 0.00 28 1009.7
20260504000027 73 119 2.6 7.0 0.00 0.00 0.00 27 1009.7
20260503234524 73 222 2.6 6.1 0.00 0.00 0.00 28 1010.2
20260503233025 73 155 0.9 2.6 0.00 0.00 0.00 28 1010.4
20260503231542 71 360 3.5 7.0 0.00 0.00 0.00 28 1010.6
20260503230002 72 352 3.5 7.0 0.00 0.00 0.00 27 1010.7
20260503224503 72 9 3.5 7.0 0.00 0.00 0.00 27 1010.7
20260503223005 71 339 4.3 7.0 0.00 0.00 0.00 29 1010.9
20260503221508 72 293 2.6 7.8 0.00 0.00 0.00 28 1011.1
20260503220017 73 113 1.7 10.4 0.00 0.00 0.00 27 1011.1
20260503214503 72 9 2.6 9.6 0.00 0.00 0.00 28 1011.4
20260503213004 72 299 1.7 13.9 0.00 0.00 0.00 27 1011.6
20260503211513 71 254 1.7 11.3 0.00 0.00 0.00 28 1011.8
20260503210020 73 339 7.0 11.3 0.00 0.00 0.00 26 1011.9
20260503204518 73 160 2.6 7.8 0.00 0.00 0.00 27 1012.1
20260503203011 72 289 3.5 8.7 0.00 0.00 0.00 26 1012.2
20260503201507 72 69 5.2 8.7 0.00 0.00 0.00 27 1012.4
20260503200011 71 302 1.7 10.4 0.00 0.00 0.00 29 1012.9
20260503194519 70 346 1.7 11.3 0.00 0.00 0.00 27 1013.0
20260503193020 70 316 4.3 11.3 0.00 0.00 0.00 28 1013.1
20260503191504 69 322 1.7 9.6 0.00 0.00 0.00 29 1013.1
20260503190006 70 225 4.3 7.8 0.00 0.00 0.00 29 1013.3
20260503184513 70 352 7.0 8.7 0.00 0.00 0.00 29 1013.5
20260503183020 69 157 0.9 10.4 0.00 0.00 0.00 29 1013.7
20260503181519 69 322 6.1 11.3 0.00 0.00 0.00 32 1013.9
20260503180009 69 5 7.8 11.3 0.00 0.00 0.00 29 1014.3